AAL1080 KDFW-KCOS

Flight info

Callsign AAL1080
Flight time 1h 43m
Altitude 36000
Route LOWGN8 ROLLS DCT LBL DCT LAA OZZZY5
Aircraft B738/M-SDE2E3FGHIRWXY/LB1

Departure

Time 2026-05-05 00:52
Airport Dallas Fort Worth International Airport (KDFW)

Arrival

Time 2026-05-05 02:36
Airport City of Colorado Springs Municipal Airport (KCOS)
Time Latitude Longitude Altitude Speed Heading
2026-05-05 00:36 32.90547 -97.03506 586 ft 0 kts 269°
2026-05-05 00:45 32.90547 -97.03497 586 ft 4 kts 269°
2026-05-05 00:45 32.90548 -97.03471 586 ft 2 kts 269°
2026-05-05 00:46 32.90547 -97.03441 586 ft 4 kts 282°
2026-05-05 00:46 32.90538 -97.03411 586 ft 4 kts 302°
2026-05-05 00:46 32.90532 -97.03400 586 ft 0 kts 307°
2026-05-05 00:48 32.90537 -97.03402 586 ft 2 kts 340°
2026-05-05 00:48 32.90568 -97.03371 585 ft 9 kts 46°
2026-05-05 00:48 32.90625 -97.03322 585 ft 11 kts 22°
2026-05-05 00:49 32.90706 -97.03312 584 ft 13 kts
2026-05-05 00:49 32.90799 -97.03310 585 ft 13 kts
2026-05-05 00:49 32.90888 -97.03309 585 ft 13 kts
2026-05-05 00:49 32.90996 -97.03299 580 ft 18 kts 21°
2026-05-05 00:50 32.91121 -97.03273 579 ft 18 kts
2026-05-05 00:50 32.91247 -97.03272 581 ft 18 kts
2026-05-05 00:50 32.91369 -97.03268 579 ft 17 kts 13°
2026-05-05 00:50 32.91471 -97.03198 581 ft 17 kts 14°
2026-05-05 00:51 32.91554 -97.03141 574 ft 12 kts 81°
2026-05-05 00:51 32.91556 -97.03043 575 ft 12 kts 91°
2026-05-05 00:51 32.91500 -97.02992 581 ft 12 kts 171°
2026-05-05 00:51 32.91342 -97.02989 581 ft 50 kts 180°
2026-05-05 00:52 32.90780 -97.02993 579 ft 111 kts 180°
2026-05-05 00:52 32.89842 -97.03002 623 ft 155 kts 181°
2026-05-05 00:52 32.88722 -97.03043 1157 ft 167 kts 182°
2026-05-05 00:52 32.87569 -97.03107 1963 ft 160 kts 182°
2026-05-05 00:53 32.86524 -97.03147 2882 ft 147 kts 180°
2026-05-05 00:53 32.85454 -97.02998 3359 ft 167 kts 165°
2026-05-05 00:53 32.84298 -97.02416 3637 ft 191 kts 161°
2026-05-05 00:53 32.83014 -97.01754 3839 ft 211 kts 162°
2026-05-05 00:54 32.81590 -97.01081 4064 ft 230 kts 162°
2026-05-05 00:54 32.80164 -97.00179 4395 ft 249 kts 145°
2026-05-05 00:54 32.78853 -96.98726 5149 ft 253 kts 141°
2026-05-05 00:54 32.77487 -96.97403 5921 ft 255 kts 144°
2026-05-05 00:55 32.76479 -96.95599 6607 ft 274 kts 117°
2026-05-05 00:55 32.75923 -96.93397 7296 ft 287 kts 100°
2026-05-05 00:55 32.76133 -96.90953 7815 ft 305 kts 81°
2026-05-05 00:55 32.76487 -96.88439 8448 ft 312 kts 86°
2026-05-05 00:56 32.76921 -96.85939 9122 ft 319 kts 67°
2026-05-05 00:56 32.78212 -96.83757 9842 ft 322 kts 40°
2026-05-05 00:56 32.80092 -96.82341 10512 ft 324 kts 18°
2026-05-05 00:56 32.82294 -96.81665 10736 ft 341 kts
2026-05-05 00:57 32.84695 -96.81127 10906 ft 362 kts
2026-05-05 00:57 32.87243 -96.80743 11100 ft 375 kts 358°
2026-05-05 00:57 32.89874 -96.80777 11616 ft 380 kts 354°
2026-05-05 00:57 32.92518 -96.80862 12369 ft 379 kts 355°
2026-05-05 00:58 32.95150 -96.80901 13156 ft 378 kts 355°
2026-05-05 00:58 32.97771 -96.81086 13787 ft 376 kts 343°
2026-05-05 00:58 33.00186 -96.82208 14408 ft 371 kts 325°
2026-05-05 00:58 33.02262 -96.84011 15128 ft 369 kts 319°
2026-05-05 00:59 33.04269 -96.85930 15810 ft 371 kts 318°
2026-05-05 00:59 33.06280 -96.87881 16447 ft 374 kts 318°
2026-05-05 00:59 33.08305 -96.89843 17075 ft 376 kts 318°
2026-05-05 00:59 33.10347 -96.91810 17684 ft 379 kts 318°
2026-05-05 01:00 33.12406 -96.93784 18277 ft 381 kts 318°
2026-05-05 01:00 33.14479 -96.95762 18893 ft 382 kts 318°
2026-05-05 01:00 33.16563 -96.97748 19445 ft 385 kts 318°
2026-05-05 01:00 33.18665 -96.99748 20000 ft 387 kts 318°
2026-05-05 01:01 33.20769 -97.01751 20577 ft 387 kts 318°
2026-05-05 01:01 33.22882 -97.03763 21086 ft 389 kts 318°
2026-05-05 01:01 33.25006 -97.05787 21558 ft 392 kts 317°
2026-05-05 01:01 33.27139 -97.07822 22014 ft 394 kts 317°
2026-05-05 01:02 33.29288 -97.09872 22501 ft 395 kts 317°
2026-05-05 01:02 33.31434 -97.11921 22964 ft 396 kts 317°
2026-05-05 01:02 33.33590 -97.13981 23393 ft 398 kts 317°
2026-05-05 01:02 33.35759 -97.16056 23766 ft 400 kts 317°
2026-05-05 01:03 33.37937 -97.18140 24180 ft 401 kts 317°
2026-05-05 01:03 33.40120 -97.20231 24560 ft 403 kts 317°
2026-05-05 01:03 33.42321 -97.22298 24982 ft 405 kts 320°
2026-05-05 01:03 33.44891 -97.23796 25322 ft 419 kts 336°
2026-05-05 01:04 33.47764 -97.24565 25667 ft 431 kts 346°
2026-05-05 01:04 33.53883 -97.24245 26379 ft 445 kts 356°
2026-05-05 01:04 33.56975 -97.23867 26659 ft 448 kts 357°
2026-05-05 01:05 33.60084 -97.23476 26942 ft 449 kts 357°
2026-05-05 01:05 33.63192 -97.23098 27259 ft 449 kts 356°
2026-05-05 01:05 33.66307 -97.22737 27568 ft 450 kts 356°
2026-05-05 01:05 33.69428 -97.22391 27846 ft 451 kts 355°
2026-05-05 01:06 33.72559 -97.22052 28158 ft 451 kts 355°
2026-05-05 01:06 33.75638 -97.21720 28572 ft 448 kts 355°
2026-05-05 01:06 33.78735 -97.21387 28991 ft 446 kts 355°
2026-05-05 01:06 33.81816 -97.21056 29394 ft 443 kts 354°
2026-05-05 01:07 33.84872 -97.20728 29802 ft 440 kts 354°
2026-05-05 01:07 33.87921 -97.20399 30216 ft 438 kts 354°
2026-05-05 01:07 33.90939 -97.20076 30643 ft 435 kts 353°
2026-05-05 01:07 33.93958 -97.19751 31021 ft 434 kts 353°
2026-05-05 01:08 33.96953 -97.19430 31372 ft 433 kts 353°
2026-05-05 01:08 33.99949 -97.19108 31741 ft 431 kts 353°
2026-05-05 01:08 34.02934 -97.18786 32165 ft 428 kts 352°
2026-05-05 01:08 34.05890 -97.18466 32618 ft 425 kts 352°
2026-05-05 01:09 34.08818 -97.18151 33000 ft 422 kts 352°
2026-05-05 01:09 34.11742 -97.17838 33333 ft 421 kts 351°
2026-05-05 01:09 34.14654 -97.17524 33684 ft 419 kts 351°
2026-05-05 01:09 34.17494 -97.17527 33983 ft 395 kts 338°
2026-05-05 01:10 34.20040 -97.18430 34330 ft 374 kts 326°
2026-05-05 01:10 34.22333 -97.19826 34652 ft 363 kts 320°
2026-05-05 01:10 34.24336 -97.21611 34889 ft 354 kts 311°
2026-05-05 01:10 34.25993 -97.23781 35059 ft 352 kts 306°
2026-05-05 01:11 34.27552 -97.26068 35217 ft 353 kts 304°
2026-05-05 01:11 34.29092 -97.28388 35400 ft 353 kts 304°
2026-05-05 01:11 34.30627 -97.30708 35663 ft 352 kts 304°
2026-05-05 01:11 34.32157 -97.33011 35719 ft 352 kts 304°
2026-05-05 01:12 34.35230 -97.37612 35748 ft 351 kts 304°
2026-05-05 01:12 34.38314 -97.42205 35750 ft 352 kts 304°
2026-05-05 01:13 34.41400 -97.46799 35744 ft 352 kts 304°
2026-05-05 01:13 34.44490 -97.51398 35739 ft 352 kts 304°
2026-05-05 01:14 34.47578 -97.55998 35739 ft 352 kts 304°
2026-05-05 01:14 34.50663 -97.60604 35736 ft 352 kts 304°
2026-05-05 01:15 34.53724 -97.65179 35728 ft 352 kts 304°
2026-05-05 01:15 34.56802 -97.69784 35722 ft 352 kts 304°
2026-05-05 01:16 34.59884 -97.74401 35716 ft 352 kts 304°
2026-05-05 01:16 34.62957 -97.79012 35722 ft 351 kts 304°
2026-05-05 01:17 34.66028 -97.83625 35719 ft 351 kts 304°
2026-05-05 01:17 34.69101 -97.88249 35712 ft 352 kts 304°
2026-05-05 01:18 34.72174 -97.92877 35714 ft 351 kts 304°
2026-05-05 01:18 34.75239 -97.97499 35707 ft 351 kts 304°
2026-05-05 01:19 34.78309 -98.02137 35684 ft 352 kts 303°
2026-05-05 01:19 34.81379 -98.06776 35675 ft 353 kts 303°
2026-05-05 01:20 34.84455 -98.11434 35671 ft 353 kts 303°
2026-05-05 01:20 34.87532 -98.16099 35663 ft 354 kts 303°
2026-05-05 01:21 34.90614 -98.20774 35664 ft 354 kts 303°
2026-05-05 01:21 34.93689 -98.25446 35669 ft 353 kts 303°
2026-05-05 01:22 34.96767 -98.30128 35665 ft 353 kts 303°
2026-05-05 01:22 34.99833 -98.34803 35670 ft 353 kts 303°
2026-05-05 01:23 35.02899 -98.39481 35658 ft 353 kts 303°
2026-05-05 01:23 35.05967 -98.44169 35651 ft 353 kts 303°
2026-05-05 01:24 35.09027 -98.48850 35648 ft 353 kts 303°
2026-05-05 01:24 35.12083 -98.53533 35639 ft 353 kts 303°
2026-05-05 01:25 35.15139 -98.58219 35646 ft 352 kts 303°
2026-05-05 01:25 35.18192 -98.62909 35629 ft 353 kts 303°
2026-05-05 01:26 35.21235 -98.67594 35644 ft 352 kts 303°
2026-05-05 01:26 35.24281 -98.72284 35638 ft 352 kts 303°
2026-05-05 01:27 35.27328 -98.76981 35627 ft 352 kts 303°
2026-05-05 01:27 35.30372 -98.81683 35632 ft 352 kts 303°
2026-05-05 01:28 35.33416 -98.86391 35632 ft 353 kts 303°
2026-05-05 01:28 35.35945 -98.90306 35635 ft 352 kts 303°
2026-05-05 01:29 35.39479 -98.95786 35627 ft 353 kts 303°
2026-05-05 01:29 35.42518 -99.00508 35622 ft 353 kts 303°
2026-05-05 01:30 35.45064 -99.04465 35634 ft 353 kts 303°
2026-05-05 01:30 35.48109 -99.09203 35621 ft 354 kts 303°
2026-05-05 01:31 35.51153 -99.13949 35629 ft 354 kts 303°
2026-05-05 01:31 35.54190 -99.18689 35626 ft 354 kts 303°
2026-05-05 01:32 35.57228 -99.23439 35623 ft 353 kts 303°
2026-05-05 01:32 35.60262 -99.28188 35631 ft 353 kts 303°
2026-05-05 01:33 35.63295 -99.32943 35630 ft 353 kts 303°
2026-05-05 01:33 35.66323 -99.37696 35632 ft 353 kts 303°
2026-05-05 01:34 35.69332 -99.42425 35624 ft 353 kts 303°
2026-05-05 01:34 35.72380 -99.47170 35632 ft 355 kts 306°
2026-05-05 01:35 35.76000 -99.51387 35625 ft 360 kts 311°
2026-05-05 01:35 35.79758 -99.55470 35634 ft 360 kts 311°
2026-05-05 01:36 35.83497 -99.59568 35635 ft 359 kts 310°
2026-05-05 01:36 35.87217 -99.63685 35641 ft 360 kts 310°
2026-05-05 01:37 35.90932 -99.67819 35638 ft 359 kts 310°
2026-05-05 01:37 35.94635 -99.71953 35636 ft 359 kts 310°
2026-05-05 01:38 35.98342 -99.76098 35642 ft 359 kts 310°
2026-05-05 01:38 36.02045 -99.80245 35635 ft 359 kts 310°
2026-05-05 01:39 36.05749 -99.84397 35631 ft 359 kts 310°
2026-05-05 01:39 36.09444 -99.88545 35630 ft 359 kts 310°
2026-05-05 01:40 36.13136 -99.92696 35620 ft 359 kts 310°
2026-05-05 01:40 36.16825 -99.96848 35626 ft 358 kts 310°
2026-05-05 01:41 36.20513 -100.01004 35634 ft 358 kts 310°
2026-05-05 01:41 36.24188 -100.05153 35630 ft 358 kts 310°
2026-05-05 01:42 36.27869 -100.09314 35632 ft 358 kts 310°
2026-05-05 01:42 36.31543 -100.13472 35632 ft 357 kts 310°
2026-05-05 01:43 36.35215 -100.17633 35633 ft 357 kts 310°
2026-05-05 01:43 36.38882 -100.21793 35644 ft 357 kts 309°
2026-05-05 01:44 36.42544 -100.25954 35652 ft 357 kts 309°
2026-05-05 01:44 36.46184 -100.30097 35655 ft 357 kts 309°
2026-05-05 01:45 36.49846 -100.34269 35656 ft 357 kts 309°
2026-05-05 01:45 36.53508 -100.38446 35653 ft 358 kts 309°
2026-05-05 01:46 36.57169 -100.42628 35655 ft 357 kts 309°
2026-05-05 01:46 36.60827 -100.46813 35666 ft 357 kts 309°
2026-05-05 01:47 36.64485 -100.51002 35664 ft 357 kts 309°
2026-05-05 01:47 36.68131 -100.55186 35664 ft 356 kts 309°
2026-05-05 01:48 36.71776 -100.59375 35672 ft 356 kts 308°
2026-05-05 01:48 36.75424 -100.63566 35660 ft 357 kts 308°
2026-05-05 01:49 36.79077 -100.67777 35669 ft 357 kts 308°
2026-05-05 01:49 36.82727 -100.71987 35665 ft 357 kts 308°
2026-05-05 01:50 36.86365 -100.76189 35664 ft 356 kts 308°
2026-05-05 01:50 36.90005 -100.80395 35664 ft 356 kts 308°
2026-05-05 01:51 36.93636 -100.84597 35663 ft 356 kts 308°
2026-05-05 01:51 36.97261 -100.88803 35667 ft 356 kts 308°
2026-05-05 01:52 37.00887 -100.93014 35668 ft 356 kts 308°
2026-05-05 01:52 37.04503 -100.97248 35663 ft 354 kts 306°
2026-05-05 01:53 37.07733 -101.01812 35663 ft 350 kts 303°
2026-05-05 01:53 37.10892 -101.06461 35666 ft 350 kts 302°
2026-05-05 01:54 37.14062 -101.11116 35669 ft 352 kts 302°
2026-05-05 01:54 37.17246 -101.15775 35665 ft 352 kts 302°
2026-05-05 01:55 37.20433 -101.20434 35670 ft 352 kts 302°
2026-05-05 01:55 37.23629 -101.25105 35672 ft 353 kts 302°
2026-05-05 01:56 37.26800 -101.29747 35672 ft 352 kts 302°
2026-05-05 01:56 37.30006 -101.34449 35671 ft 352 kts 302°
2026-05-05 01:57 37.33168 -101.39092 35674 ft 352 kts 302°
2026-05-05 01:57 37.36349 -101.43772 35676 ft 352 kts 302°
2026-05-05 01:58 37.39524 -101.48449 35674 ft 352 kts 302°
2026-05-05 01:58 37.42698 -101.53129 35674 ft 352 kts 302°
2026-05-05 01:59 37.45866 -101.57810 35676 ft 352 kts 302°
2026-05-05 01:59 37.49036 -101.62497 35676 ft 351 kts 302°
2026-05-05 02:00 37.52195 -101.67172 35686 ft 350 kts 302°
2026-05-05 02:00 37.55353 -101.71849 35683 ft 351 kts 301°
2026-05-05 02:01 37.58506 -101.76540 35685 ft 351 kts 301°
2026-05-05 02:01 37.61662 -101.81240 35680 ft 351 kts 301°
2026-05-05 02:02 37.64815 -101.85938 35684 ft 350 kts 301°
2026-05-05 02:02 37.67962 -101.90631 35686 ft 350 kts 301°
2026-05-05 02:03 37.71100 -101.95320 35690 ft 350 kts 301°
2026-05-05 02:03 37.74241 -102.00016 35694 ft 350 kts 301°
2026-05-05 02:04 37.77377 -102.04714 35696 ft 350 kts 301°
2026-05-05 02:04 37.80500 -102.09399 35703 ft 350 kts 301°
2026-05-05 02:05 37.83637 -102.14113 35701 ft 350 kts 301°
2026-05-05 02:05 37.86326 -102.18158 35707 ft 350 kts 301°
2026-05-05 02:06 37.89461 -102.22880 35698 ft 350 kts 301°
2026-05-05 02:06 37.92585 -102.27596 35700 ft 351 kts 301°
2026-05-05 02:07 37.95726 -102.32345 35696 ft 352 kts 301°
2026-05-05 02:07 37.97315 -102.34756 35076 ft 358 kts 301°
2026-05-05 02:07 37.98901 -102.37152 34499 ft 352 kts 301°
2026-05-05 02:08 38.00474 -102.39527 33964 ft 348 kts 300°
2026-05-05 02:08 38.02019 -102.41863 33442 ft 344 kts 300°
2026-05-05 02:08 38.03529 -102.44147 32956 ft 340 kts 301°
2026-05-05 02:08 38.05039 -102.46432 32460 ft 337 kts 301°
2026-05-05 02:09 38.06539 -102.48713 31969 ft 334 kts 301°
2026-05-05 02:09 38.08028 -102.50982 31477 ft 332 kts 301°
2026-05-05 02:09 38.09500 -102.53225 30999 ft 328 kts 302°
2026-05-05 02:09 38.10946 -102.55427 30538 ft 326 kts 302°
2026-05-05 02:10 38.12408 -102.57661 30068 ft 330 kts 302°
2026-05-05 02:10 38.13895 -102.59941 29561 ft 346 kts 303°
2026-05-05 02:10 38.15477 -102.62365 29042 ft 361 kts 303°
2026-05-05 02:10 38.17090 -102.64815 28498 ft 355 kts 304°
2026-05-05 02:11 38.18665 -102.67211 28008 ft 351 kts 304°
2026-05-05 02:11 38.20218 -102.69574 27682 ft 344 kts 304°
2026-05-05 02:11 38.21743 -102.71841 27551 ft 335 kts 304°
2026-05-05 02:11 38.23287 -102.74124 27452 ft 347 kts 305°
2026-05-05 02:12 38.24896 -102.76513 27342 ft 361 kts 305°
2026-05-05 02:12 38.28204 -102.81410 27061 ft 363 kts 305°
2026-05-05 02:12 38.29845 -102.83839 26933 ft 361 kts 305°
2026-05-05 02:13 38.31476 -102.86263 26811 ft 359 kts 305°
2026-05-05 02:13 38.33099 -102.88679 26643 ft 359 kts 305°
2026-05-05 02:13 38.34725 -102.91108 26345 ft 362 kts 306°
2026-05-05 02:13 38.36359 -102.93550 26058 ft 364 kts 306°
2026-05-05 02:14 38.38006 -102.96012 25768 ft 365 kts 306°
2026-05-05 02:14 38.39647 -102.98477 25474 ft 363 kts 306°
2026-05-05 02:14 38.41277 -103.00921 25177 ft 360 kts 306°
2026-05-05 02:14 38.42885 -103.03323 24890 ft 354 kts 306°
2026-05-05 02:15 38.44496 -103.05730 24601 ft 357 kts 306°
2026-05-05 02:15 38.46110 -103.08144 24323 ft 358 kts 306°
2026-05-05 02:15 38.47701 -103.10545 24035 ft 360 kts 306°
2026-05-05 02:15 38.49318 -103.12986 23755 ft 360 kts 306°
2026-05-05 02:16 38.50944 -103.15425 23459 ft 359 kts 306°
2026-05-05 02:16 38.52556 -103.17855 23165 ft 359 kts 307°
2026-05-05 02:16 38.54184 -103.20272 22874 ft 357 kts 306°
2026-05-05 02:16 38.55775 -103.22696 22554 ft 355 kts 306°
2026-05-05 02:17 38.56850 -103.24332 22290 ft 355 kts 306°
2026-05-05 02:17 38.58435 -103.26708 21958 ft 350 kts 307°
2026-05-05 02:17 38.59978 -103.29028 21612 ft 346 kts 306°
2026-05-05 02:17 38.61552 -103.31348 21275 ft 342 kts 307°
2026-05-05 02:18 38.63110 -103.33656 20938 ft 345 kts 305°
2026-05-05 02:18 38.64634 -103.36047 20593 ft 350 kts 306°
2026-05-05 02:18 38.66181 -103.38425 20244 ft 347 kts 306°
2026-05-05 02:18 38.67727 -103.40780 19905 ft 343 kts 307°
2026-05-05 02:19 38.69277 -103.43104 19552 ft 342 kts 306°
2026-05-05 02:19 38.70776 -103.45454 19217 ft 340 kts 306°
2026-05-05 02:19 38.72314 -103.47751 18889 ft 340 kts 307°
2026-05-05 02:19 38.73856 -103.50074 18539 ft 344 kts 306°
2026-05-05 02:20 38.75389 -103.52405 18215 ft 343 kts 308°
2026-05-05 02:20 38.76933 -103.54726 17864 ft 339 kts 306°
2026-05-05 02:20 38.78427 -103.57063 17540 ft 341 kts 307°
2026-05-05 02:20 38.79923 -103.59356 17207 ft 338 kts 307°
2026-05-05 02:21 38.81357 -103.61786 16842 ft 337 kts 295°
2026-05-05 02:21 38.82124 -103.64558 16684 ft 326 kts 281°
2026-05-05 02:21 38.82544 -103.67394 16466 ft 326 kts 278°
2026-05-05 02:21 38.82886 -103.70284 16257 ft 325 kts 277°
2026-05-05 02:22 38.83218 -103.73153 16053 ft 325 kts 277°
2026-05-05 02:22 38.83554 -103.76025 15848 ft 326 kts 277°
2026-05-05 02:22 38.83899 -103.78900 15642 ft 327 kts 278°
2026-05-05 02:22 38.84253 -103.81786 15433 ft 328 kts 278°
2026-05-05 02:23 38.84612 -103.84677 15220 ft 328 kts 278°
2026-05-05 02:23 38.84973 -103.87569 14997 ft 329 kts 278°
2026-05-05 02:23 38.85335 -103.90463 14792 ft 328 kts 278°
2026-05-05 02:23 38.85697 -103.93352 14588 ft 328 kts 278°
2026-05-05 02:24 38.86056 -103.96224 14371 ft 321 kts 278°
2026-05-05 02:24 38.86399 -103.98971 14156 ft 304 kts 278°
2026-05-05 02:24 38.86724 -104.01579 13979 ft 290 kts 278°
2026-05-05 02:24 38.86929 -104.04105 13886 ft 285 kts 264°
2026-05-05 02:25 38.86268 -104.06577 13802 ft 310 kts 242°
2026-05-05 02:25 38.85155 -104.08988 13632 ft 323 kts 240°
2026-05-05 02:25 38.83954 -104.11492 13400 ft 324 kts 240°
2026-05-05 02:25 38.82772 -104.13947 13196 ft 324 kts 240°
2026-05-05 02:26 38.81586 -104.16424 13000 ft 328 kts 240°
2026-05-05 02:26 38.80442 -104.18825 12800 ft 324 kts 240°
2026-05-05 02:26 38.79291 -104.21249 12595 ft 320 kts 240°
2026-05-05 02:26 38.78111 -104.23741 12388 ft 319 kts 240°
2026-05-05 02:27 38.76968 -104.26157 12196 ft 321 kts 240°
2026-05-05 02:27 38.75815 -104.28598 12000 ft 321 kts 240°
2026-05-05 02:27 38.74644 -104.31075 11797 ft 322 kts 240°
2026-05-05 02:27 38.73509 -104.33475 11598 ft 319 kts 240°
2026-05-05 02:28 38.72326 -104.35975 11378 ft 312 kts 240°
2026-05-05 02:28 38.71193 -104.38369 11195 ft 317 kts 240°
2026-05-05 02:28 38.70061 -104.40759 11001 ft 320 kts 240°
2026-05-05 02:28 38.68907 -104.43194 10803 ft 321 kts 239°
2026-05-05 02:29 38.67748 -104.45637 10589 ft 317 kts 239°
2026-05-05 02:29 38.66637 -104.47975 10374 ft 300 kts 239°
2026-05-05 02:29 38.65582 -104.50195 10175 ft 284 kts 239°
2026-05-05 02:29 38.64577 -104.52309 9989 ft 274 kts 239°
2026-05-05 02:30 38.63597 -104.54371 9814 ft 270 kts 239°
2026-05-05 02:30 38.62635 -104.56394 9613 ft 261 kts 239°
2026-05-05 02:30 38.61712 -104.58332 9461 ft 248 kts 239°
2026-05-05 02:30 38.60828 -104.60185 9329 ft 241 kts 239°
2026-05-05 02:31 38.59975 -104.61972 9212 ft 229 kts 239°
2026-05-05 02:31 38.59226 -104.63711 9058 ft 220 kts 252°
2026-05-05 02:31 38.59176 -104.65617 8929 ft 216 kts 284°
2026-05-05 02:31 38.59877 -104.67305 8783 ft 219 kts 314°
2026-05-05 02:32 38.61227 -104.68139 8658 ft 220 kts 349°
2026-05-05 02:32 38.62747 -104.68394 8520 ft 221 kts 351°
2026-05-05 02:32 38.64288 -104.68573 8373 ft 225 kts 355°
2026-05-05 02:32 38.65858 -104.68610 8226 ft 226 kts 358°
2026-05-05 02:33 38.67432 -104.68602 8093 ft 222 kts 358°
2026-05-05 02:33 38.68938 -104.68594 7866 ft 212 kts 358°
2026-05-05 02:33 38.70374 -104.68592 7601 ft 200 kts 359°
2026-05-05 02:33 38.71734 -104.68592 7359 ft 187 kts
2026-05-05 02:34 38.72982 -104.68588 7107 ft 173 kts
2026-05-05 02:34 38.74113 -104.68585 6882 ft 154 kts
2026-05-05 02:34 38.75137 -104.68584 6686 ft 144 kts
2026-05-05 02:34 38.76130 -104.68583 6504 ft 144 kts
2026-05-05 02:35 38.77141 -104.68581 6350 ft 147 kts 359°
2026-05-05 02:35 38.78179 -104.68584 6196 ft 150 kts 359°
2026-05-05 02:35 38.79119 -104.68578 6191 ft 114 kts
2026-05-05 02:35 38.79763 -104.68578 6193 ft 71 kts
2026-05-05 02:36 38.80040 -104.68580 6196 ft 9 kts 350°
2026-05-05 02:36 38.80094 -104.68612 6196 ft 8 kts 334°
2026-05-05 02:36 38.80149 -104.68645 6194 ft 9 kts 337°
2026-05-05 02:36 38.80208 -104.68680 6194 ft 4 kts 330°
2026-05-05 02:37 38.80215 -104.68686 6194 ft 1 kts 329°
2026-05-05 02:37 38.80227 -104.68695 6194 ft 2 kts 329°
2026-05-05 02:37 38.80247 -104.68710 6194 ft 5 kts 329°
2026-05-05 02:37 38.80288 -104.68739 6194 ft 8 kts 332°
2026-05-05 02:38 38.80348 -104.68789 6193 ft 12 kts 311°
2026-05-05 02:38 38.80361 -104.68889 6192 ft 12 kts 270°
2026-05-05 02:38 38.80360 -104.69005 6193 ft 13 kts 269°
2026-05-05 02:38 38.80358 -104.69118 6193 ft 13 kts 269°
2026-05-05 02:39 38.80359 -104.69230 6193 ft 13 kts 271°
2026-05-05 02:39 38.80360 -104.69359 6193 ft 17 kts 271°
2026-05-05 02:39 38.80361 -104.69513 6193 ft 17 kts 270°
2026-05-05 02:39 38.80364 -104.69665 6192 ft 18 kts 271°
2026-05-05 02:40 38.80363 -104.69840 6193 ft 20 kts 269°
2026-05-05 02:40 38.80363 -104.70016 6192 ft 17 kts 270°
2026-05-05 02:40 38.80297 -104.70086 6192 ft 14 kts 183°
2026-05-05 02:40 38.80203 -104.70086 6192 ft 13 kts 179°
2026-05-05 02:41 38.80152 -104.70087 6191 ft 0 kts 181°
2026-05-05 02:41 38.80144 -104.70087 6193 ft 5 kts 182°
2026-05-05 02:41 38.80101 -104.70103 6193 ft 7 kts 206°
2026-05-05 02:41 38.80072 -104.70162 6192 ft 9 kts 259°
2026-05-05 02:42 38.80067 -104.70237 6191 ft 8 kts 253°
2026-05-05 02:42 38.80017 -104.70255 6192 ft 8 kts 168°
2026-05-05 02:42 38.79973 -104.70241 6192 ft 5 kts 161°
2026-05-05 02:42 38.79962 -104.70197 6193 ft 5 kts 116°
2026-05-05 02:43 38.79944 -104.70165 6192 ft 2 kts 126°
2026-05-05 02:43 38.79941 -104.70161 6193 ft 0 kts 126°